Location: 433rd Scouts Home(Lloyd Manor Park, Etobicoke )
(43.6722°N, 79.5542°W)
Time: 03:51:35
(UTC-04:00)

Envisat - Pass Details

Date: 23 September 2021
Orbit: 764 x 766 km, 98.2° (Epoch: 25 October)

Event Time Altitude Azimuth Distance (km) Brightness Sun altitude
Rises 06:12:09 0° 17° (NNE) 3,241 6.6 -10.7°
Reaches altitude 10° 06:14:31 10° 21° (NNE) 2,310 5.9 -10.3°
Maximum altitude 06:19:32 57° 100° (E) 900 3.8 -9.4°
Drops below altitude 10° 06:24:30 10° 179° (S) 2,293 5.4 -8.5°
Sets 06:26:50 0° 184° (S) 3,214 6.1 -8.1°
